Syracuse, NY

10:10 PM EST on February 18, 2018 (GMT -0500)
Syracuse Hancock International

Weather History for KSYR - February, 2013

Change the Weather History Date:

Thursday, February 14, 2013

  Actual Average Record
Temperature  
Mean Temperature 32 °F 26 °F  
Max Temperature 40 °F 34 °F 57 °F (1946)
Min Temperature 24 °F 17 °F -23 °F (2016)
Degree Days  
Heating Degree Days 33 39  
Month to date heating degree days 593 565  
Since 1 July heating degree days 3860 4301  
Cooling Degree Days 0 0  
Month to date cooling degree days 0 0  
Year to date cooling degree days 0 0  
Moisture  
Dew Point 24 °F    
Average Humidity 66    
Maximum Humidity 82    
Minimum Humidity 50    
Precipitation  
Precipitation 0.03 in 0.08 in 1.34 in (1914)
Month to date precipitation 1.24 1.00  
Year to date precipitation 2.95 3.50  
Snow  
Snow T in 0.90 in 18.00 in (1960)
Month to date snowfall 25.5 13.2  
Since 1 July snowfall 72.3 89.8  
Snow Depth 3.00 in    
Sea Level Pressure  
Sea Level Pressure 29.87 in    
Wind  
Wind Speed 6 mph (SW)    
Max Wind Speed 16 mph    
Max Gust Speed 21 mph    
Visibility 9 miles    
Events Rain , Snow    
T = Trace of Precipitation, MM = Missing Value Source: NWS Daily Summary

Daily Weather History Graph

Daily Weather History Graph

Search for Another Location

Airport or City:

Trip Planner

Search our weather history database for the weather conditions in past years. The results will help you decide how hot, cold, wet, or windy it might be!

Date:

Astronomy

Feb. 14, 2013 Rise Set
Actual Time 7:03 AM EST 5:34 PM EST
Civil Twilight 6:33 AM EST 6:03 PM EST
Nautical Twilight 6:00 AM EST 6:37 PM EST
Astronomical Twilight 5:27 AM EST 7:10 PM EST
Moon 8:55 AM EST (2/14) 10:45 PM EST (2/14)
Length of Visible Light 11h 29m
Length of Day
10h 31m
Waxing Crescent, 21% of the Moon is Illuminated
Feb 14
Waxing Crescent
Feb 17
First Quarter
Feb 25
Full
Mar 4
Last Quarter
Mar 11
New

Hourly Weather History & Observations

Time (EST) Temp. Windchill Dew Point Humidity Pressure Visibility Wind Dir Wind Speed Gust Speed Precip Events Conditions
12:54 AM 25.0 °F 18.1 °F 18.0 °F 75% 29.79 in 9.0 mi West 5.8 mph - N/A   Scattered Clouds
1:54 AM 26.1 °F 19.4 °F 19.9 °F 78% 29.81 in 9.0 mi West 5.8 mph - N/A   Overcast
2:54 AM 27.0 °F - 21.0 °F 78% 29.82 in 10.0 mi Calm Calm - N/A   Overcast
3:46 AM 28.4 °F 22.2 °F 21.2 °F 74% 29.83 in 9.0 mi WSW 5.8 mph - N/A   Overcast
3:54 AM 28.0 °F 21.7 °F 21.0 °F 75% 29.83 in 9.0 mi WSW 5.8 mph - N/A   Overcast
4:44 AM 28.4 °F 21.2 °F 21.2 °F 74% 29.84 in 10.0 mi SW 6.9 mph - N/A   Overcast
4:54 AM 28.9 °F 21.9 °F 21.0 °F 72% 29.85 in 10.0 mi SW 6.9 mph - N/A   Overcast
4:59 AM 28.4 °F 20.4 °F 21.2 °F 74% 29.85 in 10.0 mi SW 8.1 mph - N/A   Overcast
5:54 AM 28.9 °F 21.1 °F 21.9 °F 75% 29.86 in 9.0 mi WSW 8.1 mph - N/A   Overcast
6:13 AM 28.4 °F 19.7 °F 21.2 °F 74% 29.87 in 8.0 mi WSW 9.2 mph - N/A   Overcast
6:54 AM 28.9 °F 21.1 °F 21.9 °F 75% 29.89 in 8.0 mi West 8.1 mph - N/A   Overcast
6:58 AM 28.4 °F 20.4 °F 21.2 °F 74% 29.88 in 8.0 mi West 8.1 mph - N/A   Overcast
7:29 AM 28.4 °F 22.2 °F 21.2 °F 74% 29.90 in 7.0 mi WSW 5.8 mph - N/A   Overcast
7:54 AM 30.0 °F 25.2 °F 21.9 °F 72% 29.91 in 7.0 mi WSW 4.6 mph - N/A   Overcast
8:54 AM 30.9 °F 24.3 °F 21.9 °F 69% 29.93 in 7.0 mi WSW 6.9 mph - 0.00 in   Overcast
9:54 AM 32.0 °F 26.4 °F 23.0 °F 69% 29.94 in 7.0 mi SW 5.8 mph - N/A   Overcast
10:25 AM 33.8 °F 27.7 °F 21.2 °F 60% 29.93 in 10.0 mi SW 6.9 mph - N/A   Overcast
10:54 AM 33.1 °F 25.5 °F 21.9 °F 64% 29.94 in 10.0 mi SW 9.2 mph - N/A   Overcast
11:54 AM 34.0 °F 29.8 °F 23.0 °F 64% 29.92 in 10.0 mi South 4.6 mph - N/A   Overcast
12:54 PM 36.0 °F 32.1 °F 21.9 °F 57% 29.90 in 10.0 mi West 4.6 mph - N/A   Overcast
1:00 PM 37.4 °F - 23.0 °F 56% 29.89 in 10.0 mi Calm Calm - N/A   Overcast
1:54 PM 37.0 °F - 23.0 °F 57% 29.89 in 10.0 mi Calm Calm - N/A   Overcast
2:54 PM 39.0 °F 35.7 °F 23.0 °F 53% 29.87 in 10.0 mi Variable 4.6 mph - N/A   Overcast
3:54 PM 39.9 °F - 23.0 °F 51% 29.86 in 10.0 mi Calm Calm - N/A   Overcast
4:54 PM 37.0 °F 31.6 °F 23.0 °F 57% 29.86 in 10.0 mi ENE 6.9 mph - N/A   Overcast
5:54 PM 36.0 °F 31.1 °F 24.1 °F 62% 29.86 in 10.0 mi ENE 5.8 mph - N/A   Overcast
6:54 PM 36.0 °F 32.1 °F 25.0 °F 64% 29.87 in 10.0 mi East 4.6 mph - N/A   Overcast
7:54 PM 37.9 °F 31.5 °F 28.0 °F 68% 29.86 in 10.0 mi SSW 9.2 mph - 0.00 in Rain Light Rain
8:11 PM 37.4 °F 30.8 °F 28.4 °F 70% 29.86 in 10.0 mi South 9.2 mph - 0.00 in Rain Light Rain
8:51 PM 37.4 °F 30.3 °F 30.2 °F 75% 29.86 in 9.0 mi South 10.4 mph - 0.01 in Rain Light Rain
8:54 PM 37.0 °F 31.0 °F 30.9 °F 79% 29.86 in 9.0 mi South 8.1 mph - 0.01 in Rain Light Rain
9:06 PM 37.4 °F 31.4 °F 30.2 °F 75% 29.85 in 9.0 mi South 8.1 mph - 0.00 in Rain Light Rain
9:24 PM 37.4 °F 31.4 °F 32.0 °F 81% 29.85 in 8.0 mi South 8.1 mph - 0.00 in Rain Light Rain
9:54 PM 37.0 °F 31.6 °F 32.0 °F 82% 29.85 in 7.0 mi South 6.9 mph - 0.00 in Rain Light Rain
10:54 PM 37.0 °F 29.8 °F 30.9 °F 79% 29.84 in 7.0 mi South 10.4 mph - 0.00 in Rain Light Rain
11:00 PM 37.4 °F 30.8 °F 30.2 °F 75% 29.83 in 7.0 mi SSW 9.2 mph - 0.01 in Rain , Snow Light Rain
11:32 PM 35.6 °F 28.6 °F 32.0 °F 87% 29.83 in 6.0 mi South 9.2 mph - 0.02 in Rain , Snow Light Rain
11:54 PM 37.0 °F 29.3 °F 32.0 °F 82% 29.82 in 7.0 mi South 11.5 mph - 0.02 in Rain , Snow Light Rain